Weather History for Medford, OR

Change the Weather History Date:

Saturday, February 8, 2014

  Actual Average Record
Temperature  
Mean Temperature 51 °F 43 °F  
Max Temperature 62 °F 53 °F 70 °F (1996)
Min Temperature 39 °F 34 °F 14 °F (1929)
Degree Days  
Heating Degree Days 14 22  
Month to date heating degree days 190 178  
Since 1 July heating degree days 3043 2710  
Cooling Degree Days 0 0  
Month to date cooling degree days 0 0  
Year to date cooling degree days 0 0  
Moisture  
Dew Point 40 °F    
Average Humidity 73    
Maximum Humidity 100    
Minimum Humidity 46    
Precipitation  
Precipitation 0.19 in 0.07 in 1.45 in (1960)
Month to date precipitation 0.54 0.57  
Year to date precipitation 1.32 3.00  
Snow  
Snow 0.00 in 0.00 in - ()
Month to date snowfall T 0.2  
Since 1 July snowfall 3.4 3.2  
Snow Depth 0.00 in    
Sea Level Pressure  
Sea Level Pressure 29.85 in    
Wind  
Wind Speed 4 mph (SE)    
Max Wind Speed 17 mph    
Max Gust Speed 20 mph    
Visibility 7 miles    
Events Rain    
T = Trace of Precipitation, MM = Missing Value Source: NWS Daily Summary

Daily Weather History Graph

Daily Weather History Graph

Search for Another Location

Airport:

Trip Planner

Search our weather history database for the weather conditions in past years. The results will help you decide how hot, cold, wet, or windy it might be!

Date:

Astronomy

Feb. 08, 2014 Rise Set
Actual Time 7:17 AM PST 5:34 PM PST
Civil Twilight 6:47 AM PST 6:04 PM PST
Nautical Twilight 6:14 AM PST 6:37 PM PST
Astronomical Twilight 5:41 AM PST 7:10 PM PST
Moon 12:31 PM PST (2/8) 2:36 AM PST (2/8)
Length of Visible Light 11h 16m
Length of Day
10h 17m
Waxing Gibbous, 69% of the Moon is Illuminated
Feb 8
Waxing Gibbous
Feb 14
Full
Feb 22
Last Quarter
Mar 1
New
Mar 8
First Quarter

Hourly Weather History & Observations

Time (PST) Temp. Windchill Dew Point Humidity Pressure Visibility Wind Dir Wind Speed Gust Speed Precip Events Conditions
12:53 AM 39.9 °F - 37.9 °F 93% 29.81 in 5.0 mi Calm Calm - N/A   Overcast
1:53 AM 39.9 °F 37.8 °F 37.9 °F 93% 29.82 in 5.0 mi SW 3.5 mph - N/A   Overcast
2:53 AM 39.9 °F 36.7 °F 39.0 °F 97% 29.84 in 5.0 mi SE 4.6 mph - N/A   Mostly Cloudy
3:53 AM 41.0 °F 37.1 °F 39.0 °F 93% 29.87 in 5.0 mi SE 5.8 mph - 0.00 in Rain Light Rain
4:53 AM 42.1 °F - 39.9 °F 92% 29.86 in 8.0 mi Calm Calm - 0.00 in   Overcast
5:53 AM 39.0 °F 36.8 °F 37.9 °F 96% 29.87 in 4.0 mi East 3.5 mph - N/A   Scattered Clouds
6:53 AM 39.9 °F - 37.9 °F 93% 29.85 in 5.0 mi Calm Calm - N/A   Mostly Cloudy
7:53 AM 39.9 °F 37.8 °F 37.9 °F 93% 29.87 in 6.0 mi SE 3.5 mph - N/A   Mostly Cloudy
8:53 AM 42.1 °F - 39.9 °F 92% 29.87 in 6.0 mi Calm Calm - N/A   Overcast
9:53 AM 44.1 °F - 41.0 °F 89% 29.87 in 6.0 mi Calm Calm - 0.00 in Rain Light Rain
10:18 AM 44.1 °F 40.1 °F 42.1 °F 93% 29.85 in 6.0 mi NE 6.9 mph - 0.00 in Rain Light Rain
10:53 AM 45.0 °F - 42.1 °F 90% 29.88 in 4.0 mi Calm Calm - 0.04 in Rain Rain
11:53 AM 46.0 °F 44.8 °F 44.1 °F 93% 29.87 in 3.0 mi ESE 3.5 mph - 0.12 in Rain Rain
12:53 PM 46.9 °F - 44.1 °F 90% 29.81 in 6.0 mi North 10.4 mph - 0.02 in Rain Light Rain
1:53 PM 48.9 °F - 46.0 °F 90% 29.80 in 6.0 mi NNW 5.8 mph - 0.01 in Rain Light Rain
2:53 PM 55.9 °F - 46.9 °F 72% 29.78 in 10.0 mi NNE 6.9 mph - 0.00 in   Scattered Clouds
3:53 PM 61.0 °F - 45.0 °F 56% 29.77 in 10.0 mi South 8.1 mph - N/A   Mostly Cloudy
4:53 PM 55.9 °F - 48.0 °F 75% 29.79 in 10.0 mi North 5.8 mph - N/A   Scattered Clouds
5:53 PM 57.0 °F - 39.9 °F 53% 29.81 in 10.0 mi SSE 8.1 mph - N/A   Scattered Clouds
6:53 PM 55.0 °F - 37.9 °F 53% 29.84 in 10.0 mi SSE 5.8 mph - N/A   Clear
7:53 PM 55.9 °F - 35.1 °F 45% 29.86 in 10.0 mi SSW 9.2 mph - N/A   Clear
8:53 PM 53.1 °F - 35.1 °F 50% 29.91 in 10.0 mi South 10.4 mph - N/A   Clear
9:53 PM 52.0 °F - 34.0 °F 50% 29.94 in 10.0 mi SW 3.5 mph - N/A   Clear
10:53 PM 53.1 °F - 33.1 °F 47% 29.97 in 10.0 mi SSW 4.6 mph - N/A   Clear
11:53 PM 46.0 °F - 35.1 °F 66% 29.99 in 10.0 mi Calm Calm - N/A   Partly Cloudy